Location: Ohmer (historical)
(38.0096°N, 122.0227°W)
Time: 05:33:02
(UTC+00:00)

Cosmos 2369 - Pass Details

Date: 14 February 2026
Orbit: 840 x 853 km, 71.0° (Epoch: 5 March)

Event Time Altitude Azimuth Distance (km) Brightness Sun altitude
Rises 13:41:09 0° 212° (SSW) 3,394 6.6 -15.9°
Reaches altitude 10° 13:43:38 10° 216° (SW) 2,460 5.8 -15.4°
Maximum altitude 13:49:11 58° 295° (WNW) 982 3.7 -14.3°
Drops below altitude 10° 13:54:46 10° 14° (NNE) 2,466 6.2 -13.3°
Sets 13:57:16 0° 19° (NNE) 3,403 7.0 -12.8°
